| time (UTC) | temp C | wind direction | speed KPH | gust KPH | rain 1hr cm | rain 24hr cm | rain mn cm | humidity % | barometer mb |
| 20260505073043 | 17 | 333 | 4.8 | 6.4 | 0.00 | 0.00 | 0.00 | 64 | 1007.4 |
| 20260505072538 | 17 | 310 | 3.2 | 6.4 | 0.00 | 0.00 | 0.00 | 64 | 1007.5 |
| 20260505072035 | 17 | 314 | 4.8 | 6.4 | 0.00 | 0.00 | 0.00 | 64 | 1007.4 |
| 20260505071530 | 17 | 337 | 3.2 | 6.4 | 0.00 | 0.00 | 0.00 | 64 | 1007.4 |
| 20260505071029 | 17 | 341 | 4.8 | 9.7 | 0.00 | 0.00 | 0.00 | 64 | 1007.5 |
| 20260505070526 | 17 | 352 | 4.8 | 8.0 | 0.00 | 0.00 | 0.00 | 64 | 1007.6 |
| 20260505070022 | 17 | 323 | 3.2 | 6.4 | 0.00 | 0.00 | 0.00 | 65 | 1007.8 |
| 20260505065518 | 17 | 340 | 4.8 | 6.4 | 0.00 | 0.00 | 0.00 | 64 | 1007.8 |
| 20260505065014 | 17 | 339 | 3.2 | 6.4 | 0.00 | 0.00 | 0.00 | 64 | 1007.7 |
| 20260505064511 | 17 | 147 | 3.2 | 6.4 | 0.00 | 0.00 | 0.00 | 64 | 1008.0 |
| 20260505064010 | 17 | 324 | 3.2 | 8.0 | 0.00 | 0.00 | 0.00 | 64 | 1007.8 |
| 20260505063507 | 17 | 323 | 4.8 | 6.4 | 0.00 | 0.00 | 0.00 | 64 | 1007.8 |
| 20260505063007 | 17 | 305 | 3.2 | 6.4 | 0.00 | 0.00 | 0.00 | 65 | 1007.8 |
| 20260505062505 | 17 | 338 | 3.2 | 6.4 | 0.00 | 0.00 | 0.00 | 65 | 1007.8 |
| 20260505062002 | 17 | 347 | 4.8 | 6.4 | 0.00 | 0.00 | 0.00 | 65 | 1007.7 |
| 20260505061459 | 17 | 339 | 6.4 | 6.4 | 0.00 | 0.00 | 0.00 | 66 | 1007.9 |
| 20260505060957 | 17 | 352 | 4.8 | 8.0 | 0.00 | 0.00 | 0.00 | 66 | 1007.6 |
| 20260505060454 | 17 | 9 | 6.4 | 8.0 | 0.00 | 0.00 | 0.00 | 66 | 1007.5 |
| 20260505055950 | 17 | 333 | 4.8 | 6.4 | 0.00 | 0.00 | 0.00 | 67 | 1007.5 |
| 20260505055446 | 17 | 340 | 3.2 | 4.8 | 0.00 | 0.00 | 0.00 | 67 | 1007.5 |
| 20260505054943 | 17 | 0 | 3.2 | 6.4 | 0.00 | 0.00 | 0.00 | 67 | 1007.5 |
| 20260505054440 | 17 | 291 | 4.8 | 6.4 | 0.00 | 0.00 | 0.00 | 66 | 1007.4 |
| 20260505053938 | 17 | 317 | 4.8 | 6.4 | 0.00 | 0.00 | 0.00 | 66 | 1007.4 |
| 20260505053435 | 17 | 343 | 4.8 | 8.0 | 0.00 | 0.00 | 0.00 | 66 | 1007.4 |
| 20260505052932 | 17 | 325 | 3.2 | 6.4 | 0.00 | 0.00 | 0.00 | 66 | 1007.4 |
| 20260505052429 | 17 | 355 | 4.8 | 4.8 | 0.00 | 0.00 | 0.00 | 66 | 1007.5 |
| 20260505051926 | 17 | 337 | 4.8 | 6.4 | 0.00 | 0.00 | 0.00 | 66 | 1007.5 |
| 20260505051423 | 17 | 338 | 4.8 | 8.0 | 0.00 | 0.00 | 0.00 | 66 | 1007.5 |
| 20260505050921 | 17 | 332 | 3.2 | 6.4 | 0.00 | 0.00 | 0.00 | 67 | 1007.5 |
| 20260505050419 | 17 | 349 | 3.2 | 6.4 | 0.00 | 0.00 | 0.00 | 67 | 1007.8 |
| 20260505041347 | 18 | 344 | 3.2 | 4.8 | 0.00 | 0.00 | 0.00 | 66 | 1008.0 |
| 20260505040844 | 18 | 334 | 3.2 | 8.0 | 0.00 | 0.00 | 0.00 | 65 | 1008.0 |
| 20260505040341 | 18 | 332 | 4.8 | 6.4 | 0.00 | 0.00 | 0.00 | 66 | 1007.9 |
| 20260505035838 | 18 | 348 | 4.8 | 6.4 | 0.00 | 0.00 | 0.00 | 66 | 1007.8 |
| 20260505035334 | 18 | 327 | 3.2 | 6.4 | 0.00 | 0.00 | 0.00 | 67 | 1007.9 |
| 20260505034831 | 18 | 282 | 4.8 | 6.4 | 0.00 | 0.00 | 0.00 | 67 | 1007.9 |
| 20260505034328 | 18 | 348 | 3.2 | 6.4 | 0.00 | 0.00 | 0.00 | 67 | 1007.9 |
| 20260505033825 | 17 | 345 | 4.8 | 6.4 | 0.00 | 0.00 | 0.00 | 68 | 1007.8 |
| 20260505033322 | 17 | 292 | 3.2 | 6.4 | 0.00 | 0.00 | 0.00 | 68 | 1007.8 |
| 20260505032820 | 17 | 332 | 3.2 | 6.4 | 0.00 | 0.00 | 0.00 | 69 | 1007.9 |
| 20260505032316 | 17 | 319 | 3.2 | 6.4 | 0.00 | 0.00 | 0.00 | 68 | 1007.9 |
| 20260505031813 | 17 | 333 | 3.2 | 4.8 | 0.00 | 0.00 | 0.00 | 68 | 1007.9 |
| 20260505031309 | 17 | 347 | 3.2 | 4.8 | 0.00 | 0.00 | 0.00 | 68 | 1007.8 |
| 20260505030807 | 18 | 330 | 1.6 | 4.8 | 0.00 | 0.00 | 0.00 | 67 | 1007.9 |
| 20260505030303 | 17 | 329 | 4.8 | 4.8 | 0.00 | 0.00 | 0.00 | 68 | 1007.8 |
| 20260505025758 | 18 | 340 | 3.2 | 6.4 | 0.00 | 0.00 | 0.00 | 67 | 1007.6 |
| 20260505025256 | 18 | 325 | 4.8 | 6.4 | 0.00 | 0.00 | 0.00 | 67 | 1007.6 |
| 20260505024754 | 18 | 330 | 3.2 | 4.8 | 0.00 | 0.00 | 0.00 | 67 | 1007.7 |
| 20260505024251 | 18 | 333 | 1.6 | 6.4 | 0.00 | 0.00 | 0.00 | 66 | 1007.6 |
| 20260505023749 | 18 | 332 | 4.8 | 6.4 | 0.00 | 0.00 | 0.00 | 67 | 1007.6 |
| 20260505023246 | 18 | 334 | 3.2 | 6.4 | 0.00 | 0.00 | 0.00 | 67 | 1007.6 |
| 20260505022743 | 17 | 316 | 3.2 | 6.4 | 0.00 | 0.00 | 0.00 | 67 | 1007.4 |
| 20260505022240 | 18 | 342 | 3.2 | 4.8 | 0.00 | 0.00 | 0.00 | 67 | 1007.3 |
| 20260505021737 | 18 | 319 | 3.2 | 4.8 | 0.00 | 0.00 | 0.00 | 66 | 1007.2 |
| 20260505021234 | 18 | 322 | 3.2 | 4.8 | 0.00 | 0.00 | 0.00 | 66 | 1007.1 |
| 20260505020729 | 18 | 324 | 3.2 | 3.2 | 0.00 | 0.00 | 0.00 | 66 | 1006.7 |
| 20260505020225 | 18 | 326 | 3.2 | 4.8 | 0.00 | 0.00 | 0.00 | 66 | 1006.8 |
| 20260505015723 | 18 | 266 | 0.0 | 4.8 | 0.00 | 0.00 | 0.00 | 65 | 1007.0 |
| 20260505015219 | 18 | 284 | 3.2 | 4.8 | 0.00 | 0.00 | 0.00 | 65 | 1006.6 |
| 20260505014716 | 18 | 284 | 3.2 | 4.8 | 0.00 | 0.00 | 0.00 | 65 | 1006.9 |
| 20260505014214 | 18 | 304 | 3.2 | 4.8 | 0.00 | 0.00 | 0.00 | 66 | 1006.6 |
| 20260505013710 | 18 | 315 | 3.2 | 3.2 | 0.00 | 0.00 | 0.00 | 65 | 1006.8 |
| 20260505013207 | 18 | 282 | 1.6 | 4.8 | 0.00 | 0.00 | 0.00 | 64 | 1006.7 |
| 20260505012706 | 18 | 310 | 1.6 | 3.2 | 0.00 | 0.00 | 0.00 | 64 | 1006.7 |
| 20260505012203 | 18 | 301 | 1.6 | 4.8 | 0.00 | 0.00 | 0.00 | 64 | 1006.8 |
| 20260505011658 | 19 | 309 | 3.2 | 4.8 | 0.00 | 0.00 | 0.00 | 63 | 1006.5 |
| 20260505011155 | 19 | 293 | 1.6 | 4.8 | 0.00 | 0.00 | 0.00 | 63 | 1006.6 |
| 20260505010650 | 20 | 318 | 3.2 | 4.8 | 0.00 | 0.00 | 0.00 | 62 | 1006.5 |
| 20260505010148 | 20 | 313 | 1.6 | 4.8 | 0.00 | 0.00 | 0.00 | 61 | 1006.3 |
| 20260505005644 | 20 | 313 | 3.2 | 4.8 | 0.00 | 0.00 | 0.00 | 60 | 1006.5 |
| 20260505005141 | 20 | 348 | 4.8 | 4.8 | 0.00 | 0.00 | 0.00 | 60 | 1006.6 |
| 20260505004638 | 20 | 329 | 3.2 | 4.8 | 0.00 | 0.00 | 0.00 | 60 | 1006.4 |
| 20260505004134 | 20 | 305 | 3.2 | 6.4 | 0.00 | 0.00 | 0.00 | 60 | 1006.5 |
| 20260505003632 | 20 | 328 | 0.0 | 4.8 | 0.00 | 0.00 | 0.00 | 59 | 1006.4 |
| 20260505003129 | 21 | 321 | 3.2 | 4.8 | 0.00 | 0.00 | 0.00 | 58 | 1006.5 |
| 20260505002625 | 21 | 312 | 1.6 | 4.8 | 0.00 | 0.00 | 0.00 | 57 | 1006.8 |
| 20260505002124 | 21 | 338 | 3.2 | 4.8 | 0.00 | 0.00 | 0.00 | 56 | 1006.6 |
| 20260505001620 | 21 | 303 | 0.0 | 4.8 | 0.00 | 0.00 | 0.00 | 56 | 1006.6 |
| 20260505001118 | 21 | 348 | 3.2 | 6.4 | 0.00 | 0.00 | 0.00 | 56 | 1006.7 |
| 20260505000615 | 21 | 317 | 3.2 | 4.8 | 0.00 | 0.00 | 0.00 | 55 | 1006.8 |
| 20260505000113 | 22 | 302 | 3.2 | 4.8 | 0.00 | 0.00 | 0.00 | 54 | 1006.7 |
| 20260504235609 | 22 | 353 | 3.2 | 4.8 | 0.00 | 0.00 | 0.00 | 53 | 1006.9 |
| 20260504235105 | 22 | 18 | 4.8 | 6.4 | 0.00 | 0.00 | 0.00 | 53 | 1006.9 |
| 20260504234602 | 22 | 344 | 4.8 | 6.4 | 0.00 | 0.00 | 0.00 | 52 | 1006.9 |
| 20260504234101 | 22 | 289 | 3.2 | 6.4 | 0.00 | 0.00 | 0.00 | 52 | 1007.2 |
| 20260504233600 | 22 | 352 | 4.8 | 8.0 | 0.00 | 0.00 | 0.00 | 50 | 1007.2 |
| 20260504233057 | 22 | 341 | 3.2 | 8.0 | 0.00 | 0.00 | 0.00 | 51 | 1007.5 |
| 20260504232555 | 22 | 351 | 3.2 | 6.4 | 0.00 | 0.00 | 0.00 | 51 | 1007.3 |
| 20260504232052 | 23 | 346 | 3.2 | 4.8 | 0.00 | 0.00 | 0.00 | 50 | 1007.4 |
| 20260504231549 | 23 | 16 | 6.4 | 8.0 | 0.00 | 0.00 | 0.00 | 49 | 1007.3 |
| 20260504231045 | 23 | 6 | 4.8 | 6.4 | 0.00 | 0.00 | 0.00 | 51 | 1007.5 |
| 20260504230541 | 23 | 349 | 3.2 | 3.2 | 0.00 | 0.00 | 0.00 | 48 | 1007.2 |
| 20260504230040 | 23 | 332 | 3.2 | 4.8 | 0.00 | 0.00 | 0.00 | 48 | 1007.3 |
| 20260504225537 | 23 | 8 | 1.6 | 8.0 | 0.00 | 0.00 | 0.00 | 46 | 1007.3 |
| 20260504225034 | 23 | 354 | 4.8 | 6.4 | 0.00 | 0.00 | 0.00 | 46 | 1007.3 |
| 20260504224530 | 23 | 20 | 9.7 | 9.7 | 0.00 | 0.00 | 0.00 | 46 | 1007.5 |
| 20260504224028 | 23 | 340 | 3.2 | 6.4 | 0.00 | 0.00 | 0.00 | 46 | 1007.6 |
| 20260504223524 | 23 | 3 | 6.4 | 8.0 | 0.00 | 0.00 | 0.00 | 47 | 1007.6 |
| 20260504223020 | 23 | 15 | 8.0 | 14.5 | 0.00 | 0.00 | 0.00 | 46 | 1007.6 |
| 20260504222517 | 23 | 5 | 6.4 | 12.9 | 0.00 | 0.00 | 0.00 | 48 | 1007.5 |
| 20260504222015 | 24 | 18 | 3.2 | 6.4 | 0.00 | 0.00 | 0.00 | 47 | 1007.6 |
| 20260504221512 | 24 | 3 | 6.4 | 6.4 | 0.00 | 0.00 | 0.00 | 45 | 1007.4 |
| 20260504221009 | 25 | 13 | 3.2 | 9.7 | 0.00 | 0.00 | 0.00 | 45 | 1007.6 |
| 20260504220505 | 25 | 14 | 9.7 | 16.1 | 0.00 | 0.00 | 0.00 | 46 | 1007.5 |
| 20260504220002 | 25 | 337 | 1.6 | 6.4 | 0.00 | 0.00 | 0.00 | 49 | 1007.7 |
| 20260504215459 | 25 | 29 | 3.2 | 6.4 | 0.00 | 0.00 | 0.00 | 50 | 1007.5 |
| 20260504214955 | 25 | 1 | 8.0 | 9.7 | 0.00 | 0.00 | 0.00 | 47 | 1007.6 |
| 20260504214452 | 25 | 17 | 6.4 | 11.3 | 0.00 | 0.00 | 0.00 | 49 | 1007.6 |
| 20260504213948 | 24 | 328 | 4.8 | 8.0 | 0.00 | 0.00 | 0.00 | 49 | 1007.7 |
| 20260504213444 | 25 | 5 | 4.8 | 8.0 | 0.00 | 0.00 | 0.00 | 48 | 1007.7 |
| 20260504212942 | 25 | 6 | 4.8 | 8.0 | 0.00 | 0.00 | 0.00 | 49 | 1007.6 |
| 20260504212438 | 25 | 322 | 1.6 | 6.4 | 0.00 | 0.00 | 0.00 | 52 | 1007.9 |
| 20260504211936 | 24 | 357 | 4.8 | 6.4 | 0.00 | 0.00 | 0.00 | 52 | 1007.9 |
| 20260504211432 | 25 | 14 | 3.2 | 4.8 | 0.00 | 0.00 | 0.00 | 51 | 1007.9 |
| 20260504210929 | 25 | 302 | 4.8 | 6.4 | 0.00 | 0.00 | 0.00 | 53 | 1008.0 |
| 20260504210426 | 25 | 9 | 3.2 | 6.4 | 0.00 | 0.00 | 0.00 | 52 | 1008.0 |
| 20260504205923 | 25 | 338 | 3.2 | 8.0 | 0.00 | 0.00 | 0.00 | 50 | 1008.0 |
| 20260504205421 | 25 | 341 | 3.2 | 6.4 | 0.00 | 0.00 | 0.00 | 51 | 1008.1 |
| 20260504204919 | 25 | 136 | 0.0 | 6.4 | 0.00 | 0.00 | 0.00 | 50 | 1008.2 |
| 20260504204417 | 25 | 359 | 1.6 | 6.4 | 0.00 | 0.00 | 0.00 | 53 | 1008.2 |
| 20260504203916 | 25 | 284 | 3.2 | 6.4 | 0.00 | 0.00 | 0.00 | 48 | 1008.1 |
| 20260504203413 | 25 | 304 | 3.2 | 6.4 | 0.00 | 0.00 | 0.00 | 48 | 1008.3 |
| 20260504202908 | 25 | 309 | 1.6 | 4.8 | 0.00 | 0.00 | 0.00 | 48 | 1008.4 |
| 20260504202406 | 25 | 336 | 3.2 | 3.2 | 0.00 | 0.00 | 0.00 | 47 | 1008.4 |
| 20260504201902 | 24 | 300 | 3.2 | 4.8 | 0.00 | 0.00 | 0.00 | 53 | 1008.5 |
| 20260504201400 | 23 | 335 | 0.0 | 3.2 | 0.00 | 0.00 | 0.00 | 54 | 1008.8 |
| 20260504200857 | 23 | 312 | 1.6 | 3.2 | 0.00 | 0.00 | 0.00 | 54 | 1008.8 |
| 20260504200354 | 23 | 30 | 3.2 | 4.8 | 0.00 | 0.00 | 0.00 | 54 | 1008.8 |
| 20260504195850 | 23 | 348 | 3.2 | 6.4 | 0.00 | 0.00 | 0.00 | 52 | 1008.8 |
| 20260504195345 | 24 | 357 | 4.8 | 8.0 | 0.00 | 0.00 | 0.00 | 52 | 1008.8 |
| 20260504194843 | 25 | 254 | 1.6 | 4.8 | 0.00 | 0.00 | 0.00 | 53 | 1009.0 |
| 20260504194339 | 25 | 2 | 3.2 | 6.4 | 0.00 | 0.00 | 0.00 | 50 | 1009.0 |
| 20260504193835 | 25 | 349 | 4.8 | 6.4 | 0.00 | 0.00 | 0.00 | 48 | 1009.3 |
| 20260504193332 | 26 | 125 | 4.8 | 6.4 | 0.00 | 0.00 | 0.00 | 49 | 1009.3 |
| 20260504192831 | 26 | 263 | 4.8 | 4.8 | 0.00 | 0.00 | 0.00 | 55 | 1009.3 |
| 20260504192328 | 25 | 44 | 4.8 | 6.4 | 0.00 | 0.00 | 0.00 | 52 | 1009.2 |
| 20260504191827 | 24 | 83 | 4.8 | 4.8 | 0.00 | 0.00 | 0.00 | 55 | 1009.3 |
| 20260504191324 | 25 | 338 | 3.2 | 6.4 | 0.00 | 0.00 | 0.00 | 51 | 1009.4 |
| 20260504190819 | 25 | 5 | 3.2 | 9.7 | 0.00 | 0.00 | 0.00 | 54 | 1009.5 |
| 20260504190315 | 24 | 354 | 3.2 | 6.4 | 0.00 | 0.00 | 0.00 | 54 | 1009.4 |
| 20260504185812 | 23 | 242 | 3.2 | 4.8 | 0.00 | 0.00 | 0.00 | 56 | 1009.5 |
| 20260504185309 | 22 | 5 | 1.6 | 4.8 | 0.00 | 0.00 | 0.00 | 59 | 1009.7 |
| 20260504184805 | 22 | 9 | 3.2 | 9.7 | 0.00 | 0.00 | 0.00 | 56 | 1009.8 |
| 20260504184301 | 22 | 263 | 3.2 | 4.8 | 0.00 | 0.00 | 0.00 | 60 | 1009.7 |
| 20260504183757 | 22 | 351 | 6.4 | 9.7 | 0.00 | 0.00 | 0.00 | 57 | 1009.6 |
| 20260504183254 | 22 | 16 | 12.9 | 12.9 | 0.00 | 0.00 | 0.00 | 56 | 1009.8 |
| 20260504182752 | 23 | 313 | 1.6 | 3.2 | 0.00 | 0.00 | 0.00 | 57 | 1009.5 |
| 20260504182249 | 22 | 32 | 1.6 | 4.8 | 0.00 | 0.00 | 0.00 | 59 | 1009.7 |
| 20260504181747 | 22 | 340 | 3.2 | 6.4 | 0.00 | 0.00 | 0.00 | 59 | 1009.4 |
| 20260504181244 | 21 | 339 | 1.6 | 6.4 | 0.00 | 0.00 | 0.00 | 58 | 1009.6 |
| 20260504180743 | 22 | 5 | 6.4 | 6.4 | 0.00 | 0.00 | 0.00 | 58 | 1009.7 |
| 20260504180241 | 21 | 151 | 1.6 | 6.4 | 0.00 | 0.00 | 0.00 | 59 | 1009.3 |
| 20260504175738 | 21 | 356 | 4.8 | 6.4 | 0.00 | 0.00 | 0.00 | 60 | 1009.5 |
| 20260504175235 | 21 | 347 | 6.4 | 6.4 | 0.00 | 0.00 | 0.00 | 59 | 1009.5 |
| 20260504174733 | 21 | 312 | 4.8 | 6.4 | 0.00 | 0.00 | 0.00 | 62 | 1009.5 |
| 20260504174231 | 20 | 331 | 3.2 | 9.7 | 0.00 | 0.00 | 0.00 | 63 | 1009.5 |
| 20260504173727 | 20 | 333 | 4.8 | 8.0 | 0.00 | 0.00 | 0.00 | 62 | 1009.6 |
| 20260504173224 | 20 | 193 | 0.0 | 6.4 | 0.00 | 0.00 | 0.00 | 63 | 1009.7 |
| 20260504172721 | 20 | 328 | 4.8 | 8.0 | 0.00 | 0.00 | 0.00 | 62 | 1009.5 |
| 20260504172217 | 20 | 11 | 3.2 | 12.9 | 0.00 | 0.00 | 0.00 | 62 | 1009.6 |
| 20260504171714 | 20 | 14 | 6.4 | 6.4 | 0.00 | 0.00 | 0.00 | 60 | 1009.5 |
| 20260504171211 | 19 | 335 | 1.6 | 4.8 | 0.00 | 0.00 | 0.00 | 63 | 1009.6 |
| 20260504170707 | 18 | 339 | 3.2 | 8.0 | 0.00 | 0.00 | 0.00 | 63 | 1009.4 |
| 20260504170205 | 18 | 311 | 3.2 | 12.9 | 0.00 | 0.00 | 0.00 | 64 | 1009.3 |
| 20260504160123 | 20 | 349 | 3.2 | 6.4 | 0.00 | 0.00 | 0.00 | 61 | 1010.2 |
| 20260504151050 | 18 | 337 | 3.2 | 4.8 | 0.00 | 0.00 | 0.00 | 62 | 1010.2 |
| 20260504150548 | 18 | 308 | 3.2 | 6.4 | 0.00 | 0.00 | 0.00 | 63 | 1010.1 |
| 20260504141014 | 16 | 334 | 4.8 | 9.7 | 0.00 | 0.00 | 0.00 | 66 | 1010.2 |
| 20260504140510 | 16 | 326 | 8.0 | 8.0 | 0.00 | 0.00 | 0.00 | 66 | 1010.1 |
| 20260504130435 | 13 | 308 | 3.2 | 9.7 | 0.00 | 0.00 | 0.00 | 72 | 1011.0 |
| 20260504110317 | 12 | 16 | 6.4 | 9.7 | 0.00 | 0.00 | 0.00 | 67 | 1011.0 |
| 20260504100234 | 11 | 343 | 4.8 | 6.4 | 0.00 | 0.00 | 0.00 | 68 | 1011.1 |
| 20260504081627 | 10 | 337 | 4.8 | 4.8 | 0.00 | 0.00 | 0.00 | 68 | 1011.6 |
| 20260504081123 | 10 | 330 | 3.2 | 4.8 | 0.00 | 0.00 | 0.00 | 67 | 1011.7 |
| 20260504080620 | 10 | 321 | 1.6 | 4.8 | 0.00 | 0.00 | 0.00 | 67 | 1011.7 |
| 20260504080116 | 10 | 306 | 6.4 | 6.4 | 0.00 | 0.00 | 0.00 | 66 | 1011.9 |